sat.trackr.live / text

‹ back to catalog

ONEWEB-0292

NORAD 49186 · 2021-083A

PAYLOAD ACTIVE UNKNOWN

§ Identity

Operator
Country
UK
Launch date
2021-09-14
Launch site
TYMSC
Launch vehicle
Mass (kg)
RCS (m²)

Purposes: comms

External: N2YO · Heavens-Above · Gunter

§ Orbital elements

Epoch: 2026-09-19T22:19:55.011648Z

Period
109.63 min
Inclination
87.8909°
Eccentricity
0.0002002
Mean motion
13.13469909 rev/d
Perigee alt
1,208.2 km
Apogee alt
1,211.3 km
Semi-major
7,587.9 km
B*
5.3385e-4
RAAN
301.3843°
Arg perigee
97.8579°
Mean anomaly
262.2777°
Rev number
24,336

§ Raw data

ONEWEB-02921 49186U 21083A   26262.93049782  .00000208  00000+0  53385-3 0  99982 49186  87.8909 301.3843 0002002  97.8579 262.2777 13.13469909243368

JSON: /api/v1/satellites/49186 · /tle

For live sub-satellite position, see the globe view (requires WebGL).

§ Visibility from observer

Set your observer location to see the next 7 days of passes ≥ 10°. The values pass through the URL so the page stays shareable.

No JS? Fill the form by hand. The geolocation button needs JavaScript.